Terminal Aerodrome Forecast
Issued by NWS

Home | Current Version | Previous Version | Text Only | Print | Product List | Glossary On
Versions: 1 2 3 4 5 6 7 8 9 10 11 12 13 14 15
000
FTUS46 KSEW 310500
TAFCLM
TAF
KCLM 310520Z 3106/0106 28008KT P6SM SCT040 BKN070
     FM311000 28005KT P6SM BKN025 OVC045
     FM311700 26005KT P6SM SCT025 BKN050
     FM311900 32006KT P6SM SCT050 SCT100
     FM010300 29005KT P6SM SCT050 BKN100=

USA.gov is the U.S. government's official web portal to all federal, state and local government web resources and services.